Location: Street
(51.1247°N, 2.7429°W)
Time: 02:32:12
(UTC+00:00)

deb Explorer IX - Pass Details

Date: 04 December 2020
Orbit: 536 x 1104 km, 38.8° (Epoch: 20 January)

Event Time Altitude Azimuth Distance (km) Brightness Sun altitude
Rises 16:16:09 0° 244° (WSW) 3,760 ? -2.2°
Reaches altitude 10° 16:19:24 10° 232° (SW) 2,727 ? -2.6°
Maximum altitude 16:24:36 25° 180° (S) 1,715 ? -3.3°
Drops below altitude 10° 16:29:15 10° 126° (SE) 2,408 ? -3.9°
Sets 16:31:57 0° 113° (ESE) 3,237 ? -4.3°
